GFSFLT2_con_mlcape_057.txt.gz
CAPE
0 4 2 0 112 321 165 175 204 170 167 125 87 46 16 6 0 0 0 0 0 0 0 0 0 0 0 0 0 0 0 0
2 0 0 0 31 305 292 229 231 215 123 66 28 6 0 0 0 0 0 0 0 0 0 0 0 0 0 0 0 0 0 0
2 0 0 0 0 122 350 283 175 147 40 28 21 9 4 0 0 0 0 0 0 0 0 0 0 0 0 0 0 0 0 0
2 0 0 0 0 0 26 180 150 46 25 29 14 1 0 0 0 0 0 0 0 0 0 0 0 0 0 0 0 0 0 0
0 0 0 0 0 6 105 114 47 23 8 17 2 11 1 0 0 0 0 0 0 0 0 0 0 0 0 0 0 0 0 0
0 14 26 4 26 65 72 17 0 6 11 9 0 0 0 0 0 0 0 0 0 0 0 0 0 0 0 0 0 0 0 0
0 12 55 41 18 34 7 9 6 0 0 5 0 0 0 0 0 0 0 0 0 0 0 0 0 0 0 0 0 0 0 0
0 14 44 47 0 0 0 0 0 0 1 40 0 0 0 0 0 0 0 0 0 0 0 0 0 0 0 0 0 0 0 0
0 0 0 0 0 0 0 0 0 0 0 9 68 0 0 0 0 0 0 0 0 0 0 0 0 0 0 0 0 0 0 0
6 7 19 80 0 0 0 0 0 0 0 38 41 4 0 0 0 0 0 0 0 0 0 0 0 0 0 0 0 0 0 0
68 133 122 81 0 0 0 0 0 1 27 40 4 0 0 0 0 0 0 0 0 0 0 0 0 0 0 0 0 0 0 0
183 218 147 55 0 0 0 0 0 0 1 0 0 0 0 0 0 0 0 0 0 0 0 0 0 0 0 0 0 0 0 0
170 198 114 49 0 0 0 0 0 4 0 0 0 0 0 0 0 0 0 0 0 0 0 0 0 0 0 0 0 0 0 0
146 148 107 78 10 0 0 0 0 6 0 0 0 0 0 0 0 0 0 0 0 0 0 0 0 0 0 0 0 0 0 0
101 143 81 35 0 0 0 0 0 0 0 0 0 0 0 0 0 0 0 0 0 0 0 0 0 0 0 0 0 0 0 0
94 152 98 37 2 0 0 0 0 0 0 0 0 0 0 0 0 0 0 0 0 0 0 0 0 0 0 0 0 0 0 0
107 99 114 40 9 1 0 0 0 0 0 0 0 0 0 0 0 0 0 0 0 0 0 0 0 0 0 0 0 0 0 0
162 92 131 47 2 0 0 0 0 0 0 0 0 0 0 0 0 0 0 0 0 0 0 0 0 0 0 0 0 0 0 0
248 179 220 61 0 0 0 0 0 0 0 0 0 0 0 0 0 0 0 0 0 0 0 0 0 0 0 0 0 0 0 0
282 264 235 49 0 0 0 0 0 0 0 0 0 0 0 0 0 0 0 0 0 0 0 0 0 0 0 0 0 0 0 0

GFSFLT2_con_mlcape_060.txt.gz
CAPE
3 3 1 0 0 41 84 281 286 227 192 172 103 63 37 32 2 0 0 0 0 0 0 0 0 0 0 0 0 0 0 0
1 0 0 0 0 0 180 354 305 255 225 133 75 58 29 10 0 0 0 0 0 0 0 0 0 0 0 0 0 0 0 0
2 0 0 0 0 2 43 207 216 145 106 36 18 15 4 0 0 0 0 0 0 0 0 0 0 0 0 0 0 0 0 0
4 5 2 0 0 0 34 80 196 141 66 52 24 14 11 17 0 0 0 0 0 0 0 0 0 0 0 0 0 0 0 0
5 2 0 2 18 23 15 143 157 117 119 47 53 44 2 0 0 0 0 0 0 0 0 0 0 0 0 0 0 0 0 0
0 0 0 0 0 0 1 5 9 33 84 77 68 24 5 0 0 0 0 0 0 0 0 0 0 0 0 0 0 0 0 0
2 18 9 3 14 40 58 51 25 23 72 70 28 16 1 0 0 0 0 0 0 0 0 0 0 0 0 0 0 0 0 0
0 17 25 39 44 105 48 10 8 37 27 47 44 6 6 0 0 0 0 0 0 0 0 0 0 0 0 0 0 0 0 0
4 20 82 75 27 65 14 0 1 0 43 193 4 1 2 0 0 0 0 0 0 0 0 0 0 0 0 0 0 0 0 0
8 0 34 89 26 9 0 0 0 0 85 300 406 75 21 0 0 0 0 0 0 0 0 0 0 0 0 0 0 0 0 0
0 0 0 241 201 5 10 18 7 33 221 417 570 473 40 0 0 0 0 0 0 0 0 0 0 0 0 0 0 0 0 0
1 0 49 388 304 104 16 53 40 127 328 508 555 313 30 0 0 0 0 0 0 0 0 0 0 0 0 0 0 0 0 0
120 140 254 441 337 56 3 9 23 63 266 444 207 129 12 0 0 0 0 0 0 0 0 0 0 0 0 0 0 0 0 0
155 305 469 422 292 47 0 0 33 51 228 178 119 16 0 0 0 0 0 0 0 0 0 0 0 0 0 0 0 0 0 0
237 325 495 406 390 117 15 11 50 83 117 84 8 0 0 0 0 0 0 0 0 0 0 0 0 0 0 0 0 0 0 0
317 362 486 504 506 250 52 2 1 12 97 66 35 0 0 0 0 0 0 0 0 0 0 0 0 0 0 0 0 0 0 0
457 374 428 513 501 393 193 43 0 32 214 93 4 0 0 0 0 0 0 0 0 0 0 0 0 0 0 0 0 0 0 0
643 547 492 530 546 456 440 317 108 135 18 11 2 1 0 0 0 0 0 0 0 0 0 0 0 0 0 0 0 0 0 0
826 749 636 578 691 615 599 570 360 37 5 13 0 0 0 0 0 0 0 0 0 0 0 0 0 0 0 0 0 0 0 0
989 879 874 722 708 633 598 475 251 21 1 1 0 0 0 0 0 0 0 0 0 0 0 0 0 0 0 0 0 0 0 0

GFSFLT2_con_mlcape_063.txt.gz
CAPE
2 8 0 0 0 35 91 175 249 270 235 180 144 113 114 132 144 73 26 0 0 0 0 0 0 0 0 0 0 0 0 0
2 1 0 0 0 0 14 179 282 261 205 163 118 84 57 62 51 27 0 0 0 0 0 0 0 0 0 0 0 0 0 0
3 1 0 0 0 0 0 70 179 164 139 77 77 49 17 34 47 18 1 0 0 0 0 0 0 0 0 0 0 0 0 0
2 2 2 2 0 0 2 35 135 127 126 93 65 53 73 81 35 12 0 0 0 0 0 0 0 0 0 0 0 0 0 0
3 4 2 2 4 0 33 58 117 108 108 109 99 116 94 74 12 0 0 0 0 0 0 0 0 0 0 0 0 0 0 0
2 2 2 0 1 31 56 113 144 138 135 150 157 153 111 41 0 0 0 0 0 0 0 0 0 0 0 0 0 0 0 0
1 0 1 15 11 14 28 80 97 93 98 143 195 187 177 11 0 0 0 0 0 0 0 0 0 0 0 0 0 0 0 0
1 7 0 0 6 16 27 31 5 58 111 153 218 181 160 25 0 0 0 0 0 0 0 0 0 0 0 0 0 0 0 0
1 11 36 41 66 129 111 77 26 70 59 100 158 140 134 54 22 0 0 0 0 0 0 0 0 0 0 0 0 0 0 0
1 0 53 91 122 141 51 27 28 44 21 93 113 121 117 71 27 0 0 0 0 0 0 0 0 0 0 0 0 0 0 0
8 22 46 33 15 29 18 66 16 0 0 161 321 138 162 94 28 0 0 0 0 0 0 0 0 0 0 0 0 0 0 0
9 3 16 19 31 0 1 2 0 0 19 126 357 471 404 185 37 2 0 0 0 0 0 0 0 0 0 0 0 0 0 0
0 0 0 31 43 4 0 0 4 4 100 229 438 491 492 355 174 10 0 0 0 0 0 0 0 0 0 0 0 0 0 0
2 0 0 76 129 59 0 0 0 0 13 248 476 498 383 254 184 5 0 0 0 0 0 0 0 0 0 0 0 0 0 0
104 112 82 128 121 95 0 0 0 15 31 175 451 432 254 204 134 2 0 0 0 0 0 0 0 0 0 0 0 0 0 0
146 196 234 314 316 213 49 0 0 0 24 101 268 186 111 78 19 0 0 0 0 0 0 0 0 1 0 0 0 0 0 0
357 299 320 406 447 381 300 65 1 10 38 105 260 224 112 30 0 0 0 0 0 0 0 0 0 0 0 0 0 0 0 0
611 499 441 482 554 572 575 403 259 3 14 383 365 196 33 1 0 0 0 0 0 0 0 0 0 0 0 0 0 0 0 0
856 806 589 551 625 698 718 678 635 453 306 322 105 121 8 0 0 0 0 0 0 0 0 0 0 0 0 0 0 0 0 0
1004 995 954 766 925 974 1033 1011 952 821 486 186 87 79 45 1 1 0 0 0 0 0 0 0 0 0 0 0 0 0 0 0

GFSFLT2_con_mlcape_069.txt.gz
CAPE
0 0 0 0 32 19 143 151 595 570 515 530 515 144 34 0 0 0 0 0 0 0 0 0 0 0 0 0 0 0 0 0
0 1 0 0 0 0 8 40 267 403 421 320 196 90 50 0 0 0 0 0 0 0 0 0 0 0 0 0 0 0 0 0
3 2 2 1 0 0 0 38 185 207 226 142 99 40 13 0 0 0 0 0 0 0 0 0 0 0 0 0 0 0 0 0
2 2 0 0 3 0 0 21 68 117 107 75 21 11 11 10 2 1 0 0 0 0 0 0 0 0 0 0 0 0 0 0
3 2 4 0 0 0 0 4 79 69 40 4 6 3 9 4 1 0 0 0 0 0 0 0 0 0 0 0 0 0 0 0
2 0 1 0 0 0 0 23 87 35 0 49 8 3 0 0 0 0 0 0 0 0 0 0 0 0 0 0 0 0 0 0
3 2 0 0 0 0 7 59 34 67 55 74 35 8 0 0 0 0 0 0 0 0 0 0 0 0 0 0 0 0 0 0
3 1 1 0 0 0 1 25 27 102 89 85 80 37 0 0 0 0 0 0 0 0 0 0 0 0 0 0 0 0 0 0
1 1 0 0 0 0 0 25 65 108 137 109 103 49 1 5 0 0 0 0 0 0 0 0 0 0 0 0 0 0 0 0
3 3 0 0 0 0 4 26 51 107 128 128 91 144 17 24 3 0 0 0 0 0 0 0 0 0 0 0 0 0 0 0
0 0 0 0 0 0 8 9 38 18 45 70 94 112 49 82 3 0 0 0 0 0 0 0 0 0 0 0 0 0 0 0
0 0 0 0 0 0 6 1 0 0 0 0 27 44 114 51 8 0 0 0 0 0 0 0 0 0 0 0 0 0 0 0
0 0 0 0 0 0 0 0 0 0 0 7 0 5 68 35 29 0 0 0 0 0 0 0 0 0 0 0 0 0 0 0
0 0 0 0 0 0 0 0 0 0 0 0 23 24 26 64 11 1 0 0 0 0 0 0 0 0 0 0 0 0 0 0
0 0 0 0 0 0 0 0 0 0 0 0 15 120 87 128 82 50 1 0 0 0 0 0 0 0 0 0 0 0 0 0
0 0 0 0 0 0 0 0 0 0 0 0 27 140 197 204 230 151 78 2 0 0 0 0 0 0 0 0 0 0 0 0
0 0 0 0 0 0 0 0 0 0 0 0 29 145 164 191 181 139 49 1 0 0 0 0 0 0 0 0 0 0 0 0
0 0 0 0 0 9 15 0 0 0 0 0 6 107 183 201 220 126 32 0 0 0 0 0 0 0 0 0 0 0 0 0
0 0 1 0 0 5 23 43 3 0 0 0 2 78 222 250 115 38 1 0 0 0 0 0 0 0 0 0 0 0 0 0
2 3 13 0 0 1 1 9 22 0 0 0 30 77 169 80 11 0 0 0 0 0 0 0 0 0 0 0 0 0 0 0

GFSFLT2_con_mlcape_072.txt.gz
CAPE
4 3 0 0 0 2 49 67 566 708 584 343 251 125 1 0 0 0 0 0 0 0 0 0 0 0 0 0 0 0 0 0
3 2 0 0 0 0 11 14 307 439 345 261 161 0 0 0 0 0 0 0 0 0 0 0 0 0 0 0 0 0 0 0
1 3 2 0 0 0 0 1 89 298 290 161 57 0 0 0 0 0 0 0 0 0 0 0 0 0 0 0 0 0 0 0
1 2 1 1 3 2 0 0 6 106 102 94 24 0 0 0 0 0 0 0 0 0 0 0 0 0 0 0 0 0 0 0
2 1 2 0 1 0 0 0 4 40 63 68 51 2 0 1 0 0 0 0 0 0 0 0 0 0 0 0 0 0 0 0
3 2 1 2 0 0 1 0 1 15 22 26 11 0 0 0 0 0 0 0 0 0 0 0 0 0 0 0 0 0 0 0
2 1 0 0 0 0 0 2 7 0 10 22 0 0 0 0 0 0 0 0 0 0 0 0 0 0 0 0 0 0 0 0
2 1 0 0 0 0 0 0 0 26 40 0 0 0 0 0 0 0 0 0 0 0 0 0 0 0 0 0 0 0 0 0
1 2 0 0 0 0 0 0 0 5 38 19 0 0 0 0 0 0 0 0 0 0 0 0 0 0 0 0 0 0 0 0
1 3 2 0 0 0 4 0 7 14 51 39 14 0 0 0 0 0 0 0 0 0 0 0 0 0 0 0 0 0 0 0
4 1 0 0 0 0 0 0 13 40 64 53 40 5 0 0 0 0 0 0 0 0 0 0 0 0 0 0 0 0 0 0
2 0 0 0 0 0 4 10 28 44 54 81 60 49 11 16 0 0 0 0 0 0 0 0 0 0 0 0 0 0 0 0
1 0 0 0 0 0 5 2 6 10 33 48 71 66 32 19 4 0 0 0 0 0 0 0 0 0 0 0 0 0 0 0
0 0 0 0 0 0 0 0 0 0 0 0 0 0 6 6 0 0 0 0 0 0 0 0 0 0 0 0 0 0 0 0
0 0 0 0 0 0 0 0 0 0 0 0 0 0 0 0 13 3 0 0 0 0 0 0 0 0 0 0 0 0 0 0
0 0 0 0 0 0 0 0 0 0 0 0 0 6 7 12 4 0 0 0 0 0 0 0 0 0 0 0 0 0 0 0
0 0 0 0 0 0 0 0 0 0 0 0 0 0 23 37 48 16 23 5 0 0 0 0 0 0 0 0 0 0 0 0
0 0 0 0 0 0 0 0 0 0 0 0 0 0 14 46 94 96 67 23 4 0 0 0 0 0 0 0 0 0 0 0
0 0 0 0 0 0 0 0 0 0 0 0 0 0 43 90 106 123 70 28 0 0 0 0 0 0 0 0 0 0 0 0
0 0 0 0 0 0 0 2 0 0 0 0 0 0 6 45 95 75 43 4 0 0 0 0 0 0 0 0 0 0 0 0

GFSFLT2_con_mlcape_075.txt.gz
CAPE
22 17 0 1 5 0 1 28 123 429 523 472 263 65 4 0 0 0 0 0 0 0 0 0 0 0 0 0 0 0 0 0
1 0 1 0 0 25 111 135 137 135 282 378 114 57 13 0 0 0 0 0 0 0 0 0 0 0 0 0 0 0 0 0
1 1 1 0 0 1 32 47 20 111 137 234 76 58 9 0 0 0 0 0 0 0 0 0 0 0 0 0 0 0 0 0
1 1 2 0 2 0 0 15 46 74 62 117 55 2 0 0 0 0 0 0 0 0 0 0 0 0 0 0 0 0 0 0
2 2 1 1 1 0 1 5 35 23 89 39 3 14 1 0 0 0 0 0 0 0 0 0 0 0 0 0 0 0 0 0
2 1 0 1 1 0 2 4 13 14 76 32 3 4 0 0 0 0 0 0 0 0 0 0 0 0 0 0 0 0 0 0
2 0 0 0 0 2 4 2 12 29 54 25 0 0 0 0 0 0 0 0 0 0 0 0 0 0 0 0 0 0 0 0
2 0 0 0 0 0 0 0 0 3 2 0 0 0 0 0 0 0 0 0 0 0 0 0 0 0 0 0 0 0 0 0
2 1 0 0 0 0 1 0 0 0 0 30 4 0 0 0 0 0 0 0 0 0 0 0 0 0 0 0 0 0 0 0
2 3 0 0 0 1 31 11 4 9 14 21 0 0 0 0 0 0 0 0 0 0 0 0 0 0 0 0 0 0 0 0
2 3 2 7 9 14 16 6 9 30 26 18 0 0 0 0 0 0 0 0 0 0 0 0 0 0 0 0 0 0 0 0
2 1 1 4 7 17 21 27 35 62 42 31 2 0 0 0 0 0 0 0 0 0 0 0 0 0 0 0 0 0 0 0
1 1 1 0 0 5 14 10 21 22 52 58 21 0 0 0 0 0 0 0 0 0 0 0 0 0 0 0 0 0 0 0
2 0 0 0 0 0 3 0 16 30 32 40 26 28 1 0 0 0 0 0 0 0 0 0 0 0 0 0 0 0 0 0
0 0 0 0 0 0 0 7 25 16 20 26 30 17 26 28 9 2 3 0 0 0 0 0 0 0 0 0 0 0 0 0
0 0 0 0 0 0 0 0 0 0 0 0 0 0 8 26 45 15 2 0 0 0 0 0 0 0 0 0 0 0 0 0
0 0 0 0 0 0 0 0 0 0 0 0 0 0 0 0 11 7 4 0 0 0 0 0 0 0 0 0 0 0 0 0
0 0 0 0 0 0 0 0 0 0 0 0 0 0 0 3 26 21 16 14 0 0 0 0 0 0 0 0 0 0 0 0
0 0 0 0 0 0 0 0 0 0 0 0 0 0 0 1 10 35 22 19 0 0 0 0 0 0 0 0 0 0 0 0
0 0 0 0 0 0 0 0 0 0 0 0 0 0 0 1 7 2 17 10 0 0 0 0 0 0 0 0 0 0 0 0

GFSFLT2_con_mlcape_081.txt.gz
CAPE
465 248 234 191 118 99 44 13 82 51 156 370 317 298 195 141 44 0 14 0 1 0 0 0 0 0 0 0 0 0 0 1
259 222 85 63 195 136 147 17 1 49 215 170 172 149 194 65 28 0 19 1 0 0 0 0 0 0 0 0 0 0 0 0
137 93 20 14 19 45 150 150 49 197 234 140 87 121 63 35 1 3 62 0 0 0 0 0 0 0 0 0 0 0 0 0
1 15 3 0 1 42 97 43 69 73 162 54 38 16 13 7 0 19 69 0 0 0 0 0 0 0 0 0 0 0 0 0
1 0 0 0 0 12 57 95 82 48 19 35 16 45 12 0 0 0 23 20 0 0 0 0 0 0 0 0 0 0 0 0
2 1 0 0 0 1 1 23 7 5 32 7 17 35 6 0 0 0 0 6 19 0 0 0 0 0 0 0 0 0 0 0
1 0 0 0 0 1 2 8 6 8 42 21 0 0 0 0 0 0 0 0 0 0 0 0 0 0 0 0 0 0 0 0
1 0 0 0 0 1 2 3 1 27 10 13 0 0 0 0 0 0 0 0 0 0 0 0 0 0 0 0 0 0 0 0
0 0 0 0 0 2 2 0 1 3 46 14 0 0 0 0 0 0 0 0 0 0 0 0 0 0 0 0 0 0 0 0
1 1 0 0 0 1 4 5 5 9 46 15 0 0 0 0 0 0 0 0 0 0 0 0 0 0 0 0 0 0 0 0
2 1 1 0 0 1 1 2 20 10 38 25 0 0 0 0 0 0 0 0 0 0 0 0 0 0 0 0 0 0 0 0
2 2 1 0 0 4 2 12 21 58 52 11 1 0 0 0 0 0 0 0 0 0 0 0 0 0 0 0 0 0 0 0
2 1 2 4 1 7 2 10 31 71 55 19 11 1 0 0 0 0 0 0 0 0 0 0 0 0 0 0 0 0 0 0
3 2 1 0 2 2 3 10 40 30 26 36 27 4 0 0 0 0 0 0 0 0 0 0 0 0 0 0 0 0 0 0
2 2 2 1 3 0 0 0 4 14 10 7 27 13 0 0 0 0 0 0 0 0 0 0 0 0 0 0 0 0 0 0
4 1 2 2 0 2 1 0 0 0 0 1 1 0 0 0 0 0 0 0 0 0 0 0 0 0 0 0 0 0 0 0
1 2 3 2 1 0 0 5 3 0 0 0 4 5 1 0 0 0 0 0 0 0 0 0 0 0 0 0 0 0 0 0
1 1 3 3 2 3 0 0 0 0 0 5 6 21 6 11 12 0 0 0 4 10 3 0 0 0 0 0 0 0 0 0
1 1 3 2 0 0 0 0 0 0 0 0 0 3 0 0 0 22 30 21 31 39 25 3 0 0 0 0 0 0 0 0
0 2 2 2 2 0 0 0 0 0 0 1 0 0 0 0 0 9 9 11 17 21 10 0 0 0 0 1 0 0 0 0

GFSFLT2_con_mlcape_084.txt.gz
CAPE
730 755 722 328 548 284 327 308 346 333 72 214 399 648 464 372 404 250 166 0 0 0 0 0 0 0 0 0 0 0 0 0
460 521 685 558 403 112 112 155 303 327 260 221 251 274 312 268 187 150 92 0 0 0 0 0 0 0 0 0 0 0 0 0
220 321 254 146 248 246 184 40 102 39 27 75 94 102 236 154 140 129 76 0 0 0 0 0 0 0 0 0 0 0 0 0
10 41 73 104 179 133 116 258 125 42 28 71 60 88 131 134 163 134 55 0 0 0 0 0 0 0 0 0 0 0 0 0
1 1 4 0 4 68 128 304 200 112 33 25 53 52 97 138 130 110 34 0 0 0 0 0 0 0 0 0 0 0 0 0
3 1 1 0 0 3 49 237 145 146 7 6 24 1 30 86 107 61 24 1 0 0 0 0 0 0 0 0 0 0 0 3
4 2 0 1 2 17 8 58 39 13 0 1 2 16 1 56 93 101 44 28 3 0 0 0 0 0 0 0 0 0 0 0
3 4 1 6 5 2 0 8 3 0 5 5 2 7 15 15 18 16 83 86 51 1 0 0 0 0 0 0 0 0 0 0
4 4 1 3 11 2 1 2 6 4 0 4 24 38 27 2 0 0 1 6 9 0 0 0 0 0 0 0 0 0 0 0
4 3 2 6 3 3 0 4 5 16 13 19 26 23 1 0 0 0 0 0 0 0 0 0 0 0 0 0 0 0 0 0
4 4 2 5 5 2 3 1 0 16 14 10 7 0 0 0 0 0 0 0 0 0 0 0 0 0 0 0 0 0 0 0
3 3 1 2 5 4 6 13 10 1 22 16 0 0 0 0 0 0 0 0 0 0 0 0 0 0 0 0 0 0 0 0
2 1 4 8 5 3 6 4 16 12 18 9 1 0 0 0 0 0 0 0 0 0 0 0 0 0 0 0 0 0 0 0
2 0 2 2 6 6 4 13 5 5 6 18 2 0 0 0 0 0 0 0 0 0 0 0 0 0 0 0 0 0 0 0
1 4 0 2 9 5 2 7 40 25 29 17 17 8 0 0 0 0 0 17 8 0 0 0 0 0 0 1 39 31 20 0
7 3 3 1 8 5 1 1 2 20 28 16 20 44 42 6 2 6 21 10 0 8 4 1 0 5 0 0 0 36 36 32
7 3 4 2 4 1 0 3 0 17 9 3 15 55 83 27 12 10 20 0 6 24 14 20 16 18 22 15 0 0 0 2
9 3 6 2 2 4 1 1 0 5 0 0 0 25 57 78 34 22 16 13 23 69 83 72 41 44 43 43 46 19 17 12
0 8 7 3 1 2 6 1 0 0 0 0 0 1 16 72 74 7 18 35 56 119 172 186 168 123 94 85 90 56 44 2
0 1 3 4 1 4 5 13 2 0 0 0 0 4 5 58 111 105 125 141 166 208 224 236 207 176 168 156 146 111 1 0

GFSFLT2_con_mlcape_087.txt.gz
CAPE
1106 1380 953 609 601 412 230 142 86 73 34 59 46 148 221 274 252 186 87 0 2 1 0 0 0 0 0 0 0 0 2 0
878 1133 1222 734 714 189 223 233 198 61 124 56 85 98 125 244 294 203 77 0 0 2 0 0 0 0 0 0 0 0 1 1
679 860 930 720 697 457 77 78 92 85 45 77 20 113 161 218 272 144 9 0 0 0 0 0 0 0 0 0 0 3 3 1
406 347 609 636 364 427 231 209 71 144 84 75 65 141 201 192 222 90 4 0 0 0 0 0 0 0 0 0 3 8 11 1
78 5 21 282 361 230 190 308 78 62 42 65 87 53 95 140 154 130 4 0 0 0 0 0 0 0 0 0 1 3 9 1
2 3 1 2 0 5 204 144 318 90 33 8 97 23 74 154 182 107 0 0 0 0 0 0 0 0 0 0 0 5 10 0
2 3 2 1 1 1 1 109 208 53 66 14 69 38 34 72 112 77 0 1 2 0 1 0 0 0 0 0 0 4 4 0
0 5 3 2 0 0 26 17 103 16 10 6 1 0 29 22 129 90 89 31 19 14 3 0 0 0 0 0 1 0 5 0
3 4 3 1 16 1 1 8 4 4 2 1 1 0 12 48 108 98 135 104 81 60 18 0 0 0 0 0 0 0 1 5
1 1 2 5 4 2 2 1 2 2 2 3 0 0 0 0 73 124 149 153 83 31 6 0 0 0 0 0 0 0 0 5
0 2 1 4 5 3 2 2 3 2 3 2 0 0 0 0 48 54 59 69 38 31 0 0 0 0 0 0 0 0 0 0
4 1 0 7 5 5 3 1 1 0 1 0 0 4 2 33 28 3 1 0 10 0 0 0 0 0 0 0 0 0 0 0
4 3 1 4 2 4 3 4 3 0 0 0 1 14 19 20 1 0 0 0 0 0 0 0 0 0 0 0 0 0 0 0
3 3 1 4 3 6 2 2 1 1 1 0 0 2 16 32 35 12 0 0 0 0 0 0 0 0 0 0 0 0 0 0
1 3 4 10 5 4 5 13 27 26 4 0 0 1 13 46 89 14 11 5 22 33 21 0 1 0 0 32 56 55 17 0
11 3 3 9 12 5 1 0 0 1 0 0 36 53 6 0 22 29 18 23 49 82 84 88 50 29 0 0 6 46 51 36
8 6 3 5 7 2 2 0 0 0 0 0 30 44 24 0 0 56 123 130 142 119 120 113 98 85 44 35 7 4 20 18
6 7 2 3 3 5 1 1 0 2 1 4 9 27 18 14 14 58 121 150 108 157 155 138 134 106 93 82 57 33 7 10
6 7 3 1 1 4 2 1 0 10 0 0 1 1 1 22 39 92 112 137 105 122 164 182 185 158 149 105 91 34 40 60
0 1 5 6 2 3 8 3 1 3 10 0 0 0 1 20 68 83 77 107 120 146 184 249 253 258 234 177 162 117 123 129

GFSFLT2_con_mlcape_090.txt.gz
CAPE
1198 1103 923 868 1142 965 504 257 25 40 0 0 4 104 102 160 177 291 308 143 41 21 3 0 0 0 0 0 0 0 0 0
900 1015 940 802 765 636 347 326 174 43 10 5 0 78 85 156 150 202 153 39 23 2 0 0 0 0 0 0 0 0 0 0
610 609 979 767 672 279 221 329 156 114 55 13 1 22 65 129 90 122 58 6 1 0 0 0 0 0 0 0 0 0 0 0
420 463 737 724 698 177 127 175 159 64 22 48 12 5 41 88 94 87 37 3 1 0 0 0 0 0 0 0 0 6 0 0
196 70 79 566 548 172 71 99 15 42 31 46 0 46 65 69 145 58 9 0 0 0 0 0 0 0 0 0 0 4 0 0
76 0 1 9 87 149 78 62 48 48 47 35 0 55 81 105 67 11 0 0 0 0 0 0 0 0 0 0 9 1 0 0
0 0 0 2 0 3 5 78 129 38 41 32 10 30 64 85 67 1 0 0 0 0 0 0 0 0 0 0 3 2 0 0
0 3 0 0 0 0 4 3 83 133 22 14 6 42 34 55 28 3 0 0 0 0 0 0 0 0 0 0 7 1 0 0
0 0 1 3 0 0 0 23 22 41 63 23 16 4 19 19 9 8 9 17 0 12 0 0 0 0 0 0 0 3 0 0
0 1 0 6 2 2 4 5 13 0 0 20 3 6 1 24 6 51 26 42 16 16 5 0 0 0 0 0 0 3 0 0
0 0 1 0 3 3 0 0 0 2 1 1 1 1 0 30 32 69 97 81 49 27 0 0 0 0 0 0 0 0 0 0
0 0 3 1 2 1 2 2 2 1 2 1 1 0 0 1 11 26 48 49 39 13 2 3 1 1 0 0 0 0 0 0
0 1 2 2 2 1 2 2 2 3 2 1 0 0 0 0 0 3 14 29 28 19 27 32 0 0 0 0 0 0 0 0
0 1 1 6 2 1 0 1 0 0 0 0 0 0 0 0 0 0 5 1 3 6 0 0 0 0 0 0 0 0 0 0
0 0 2 6 3 2 3 1 1 1 2 2 0 0 0 0 0 0 3 0 0 0 0 0 0 0 0 0 2 0 0 0
0 3 3 4 3 1 0 0 0 0 0 0 2 0 0 0 0 5 0 0 0 0 1 0 7 0 0 0 1 25 38 3
0 3 6 7 0 1 0 0 0 0 2 0 0 0 0 31 66 36 24 0 18 9 50 53 22 19 0 1 0 0 7 35
0 2 6 6 5 0 0 0 0 1 0 0 0 0 5 5 29 24 15 14 15 56 74 120 66 47 91 90 35 14 18 9
1 2 5 2 7 4 0 0 0 0 0 0 0 0 5 13 4 2 34 41 50 128 108 63 77 77 89 57 70 62 58 40
0 2 1 4 4 9 2 0 0 0 0 0 0 0 0 1 0 6 2 50 55 108 130 150 147 90 84 124 83 91 63 39

GFSFLT2_con_mlcape_093.txt.gz
CAPE
1004 905 804 1057 1332 1124 1014 1123 855 485 48 1 0 0 19 167 262 295 339 173 54 32 14 23 4 0 0 0 0 0 0 0
919 792 618 663 988 997 695 494 92 18 2 0 0 0 5 172 139 213 235 149 42 18 3 18 8 0 0 0 0 0 0 0
544 734 652 619 685 643 517 363 86 15 5 0 0 4 50 80 118 182 168 95 18 11 3 4 0 0 0 0 0 0 0 0
252 267 699 589 488 331 332 361 141 4 10 16 0 3 53 44 99 73 103 57 0 0 4 0 0 0 0 0 0 0 0 0
167 63 121 646 566 201 101 178 107 32 44 3 4 16 17 14 68 72 39 4 0 0 0 0 0 0 0 0 0 0 0 0
27 0 0 72 462 227 124 20 6 7 35 11 1 6 27 10 3 2 0 0 0 0 0 0 0 0 0 0 0 0 0 0
0 0 0 0 101 217 122 49 6 2 24 4 13 23 14 6 1 0 0 0 0 0 0 0 0 0 0 0 0 0 0 0
0 0 0 1 0 2 2 25 23 1 18 1 12 26 32 9 0 0 0 0 0 0 0 0 0 0 0 0 0 0 0 0
0 0 0 0 0 0 0 1 18 18 5 27 1 32 39 0 0 0 0 0 0 0 0 0 0 0 0 0 0 0 0 0
0 0 0 2 0 0 0 3 0 40 6 4 11 30 16 1 0 0 0 0 0 0 0 0 0 0 0 0 0 0 0 0
0 0 0 3 3 1 0 5 8 6 6 6 7 16 16 1 0 0 0 0 0 2 0 0 0 0 0 0 0 0 0 0
0 0 0 2 0 0 0 1 0 0 0 3 7 6 4 2 0 0 15 0 9 2 0 0 0 0 0 0 0 0 0 0
0 0 0 0 0 1 0 0 1 1 0 0 0 2 1 1 0 8 36 9 3 3 0 0 0 0 1 0 0 0 0 0
0 0 1 2 0 0 0 2 2 1 2 2 1 1 1 0 0 2 20 20 13 0 0 0 0 0 0 0 0 0 0 0
0 0 8 1 1 1 1 1 2 2 1 1 1 1 0 0 0 0 6 24 8 0 0 4 0 0 0 0 0 0 0 0
0 0 3 2 1 1 0 0 1 1 0 0 0 2 0 0 0 0 0 1 0 0 12 0 0 0 0 0 3 9 0 0
0 0 3 1 0 0 0 1 0 1 1 1 0 0 0 0 0 0 0 0 0 0 0 0 0 0 0 0 0 0 5 17
0 0 3 1 0 0 0 0 0 0 1 1 0 0 0 0 0 0 0 0 2 0 0 0 0 0 0 0 0 0 0 0
0 0 6 2 1 0 0 0 0 0 0 0 0 0 0 0 0 0 0 0 6 0 0 4 11 12 6 2 0 0 0 0
0 0 6 6 1 0 0 0 0 0 0 0 0 0 0 0 0 2 3 0 0 7 4 6 30 24 0 13 33 52 45 43

GFSFLT2_con_mlcape_096.txt.gz
CAPE
1128 1278 1191 1364 1318 1531 1760 1574 884 526 251 115 91 0 2 0 0 73 264 255 137 108 62 42 24 0 0 0 0 0 0 0
735 535 482 685 1138 1205 1252 1457 987 699 429 353 17 0 0 0 52 19 240 188 86 37 0 8 0 0 0 0 0 0 0 0
606 524 420 483 712 991 838 973 857 336 35 0 0 0 45 9 43 179 198 140 66 10 6 8 0 0 0 0 0 0 0 0
333 560 493 486 505 530 512 317 47 0 0 0 0 0 0 43 50 163 84 76 42 11 26 0 0 0 0 0 0 0 0 0
154 221 411 481 351 226 273 279 40 0 0 0 0 15 76 95 106 98 79 53 16 0 3 0 0 0 0 0 0 0 0 0
105 55 266 487 403 181 195 216 75 1 0 0 0 1 57 55 78 34 37 0 0 0 0 0 0 0 0 0 0 0 0 0
38 5 20 116 351 158 131 107 110 31 15 5 1 12 16 33 0 3 1 0 0 0 0 0 0 0 0 0 0 0 0 0
12 0 0 0 31 129 111 47 24 27 11 1 26 10 8 8 1 1 0 0 0 0 0 0 0 0 0 0 0 0 0 0
7 0 0 0 0 30 86 115 17 16 11 0 10 28 6 0 1 0 0 0 0 0 0 0 0 0 0 0 0 0 0 0
0 0 0 0 0 0 0 0 56 31 20 0 9 28 8 0 0 0 0 0 0 0 0 0 0 0 0 0 0 0 0 0
0 0 0 0 0 0 0 0 4 32 20 9 5 24 10 0 0 0 0 0 0 0 0 0 0 0 0 0 0 0 0 0
0 0 0 0 0 0 1 3 5 19 36 24 3 24 1 1 0 0 0 0 0 0 0 0 0 0 0 0 0 0 0 0
0 0 0 0 0 0 1 0 7 30 7 25 3 7 2 1 0 0 0 0 0 0 0 0 0 0 0 0 0 0 0 0
0 0 0 0 0 0 0 0 1 3 1 3 20 5 2 0 0 0 0 0 0 0 0 0 0 0 0 0 0 0 0 0
0 0 0 0 0 0 0 0 0 1 1 0 0 2 1 2 0 0 0 0 0 0 0 0 0 0 0 1 1 0 0 0
0 0 0 1 0 0 0 2 0 0 1 1 1 1 2 1 0 0 0 0 0 13 0 0 0 0 0 0 0 0 3 0
0 0 0 1 0 0 0 1 1 1 1 1 1 1 1 1 0 0 0 0 9 19 1 0 0 0 0 0 0 13 7 0
0 0 0 0 0 0 0 0 1 1 1 0 0 1 2 1 0 0 0 0 0 15 17 2 2 0 0 0 8 28 23 4
0 0 0 0 0 0 0 0 0 1 0 0 0 1 0 0 0 0 0 0 0 1 20 35 2 0 0 0 2 4 0 19
0 0 0 0 0 0 0 0 0 0 0 0 0 0 0 0 0 0 0 0 0 4 20 2 0 0 0 0 0 0 1 2

GFSFLT2_con_mlcape_099.txt.gz
CAPE
1088 1001 1042 1400 1768 1787 1670 1425 933 606 349 183 201 192 65 207 251 273 419 261 219 278 166 116 40 0 0 0 0 0 0 0
1247 1229 1133 1055 1136 1588 1739 1413 918 584 327 159 111 75 55 36 30 221 258 188 201 212 155 46 0 0 0 0 0 0 0 0
794 619 493 583 928 1034 1172 1303 991 687 405 203 150 180 48 25 30 53 115 68 128 209 143 18 0 0 0 0 0 0 0 0
468 281 171 174 458 907 865 821 774 601 510 384 142 0 2 38 85 155 85 138 111 131 116 4 0 0 0 0 0 0 0 0
242 265 213 254 319 355 340 373 279 211 193 10 0 0 0 58 37 135 160 94 98 92 21 0 0 0 0 0 0 0 0 0
153 303 255 225 130 150 124 176 75 25 0 0 0 0 0 59 39 10 16 66 82 63 0 0 0 0 0 0 0 0 0 0
133 142 172 207 144 93 60 80 53 19 0 0 0 0 28 61 90 47 69 34 36 11 0 0 0 0 0 0 0 0 0 0
100 67 110 229 190 89 17 11 53 7 2 1 0 0 19 72 49 75 50 11 5 1 0 0 0 0 0 0 0 0 0 0
69 33 10 92 124 62 14 1 19 13 0 9 8 2 9 20 25 1 1 0 1 0 0 0 0 0 0 0 0 0 0 0
18 0 0 0 10 0 21 12 0 30 24 11 12 9 1 2 11 0 0 0 1 0 0 0 0 0 0 0 0 0 0 0
0 0 0 0 0 0 0 1 80 36 15 5 9 10 0 1 0 1 0 0 0 0 0 0 0 0 0 0 0 0 0 0
0 0 0 0 0 0 0 3 8 38 29 10 15 17 1 1 0 0 0 0 0 0 0 0 0 0 0 0 0 0 0 0
0 0 0 0 0 0 0 0 0 6 23 31 12 24 1 1 0 0 0 0 0 0 0 0 0 0 0 0 0 0 0 0
0 0 0 0 0 0 0 0 0 0 18 15 23 34 2 1 0 0 0 0 0 0 0 0 0 0 0 0 0 0 0 0
0 0 0 0 0 0 0 0 0 0 0 0 4 30 1 1 0 0 0 0 0 0 0 0 0 0 0 0 0 0 0 0
0 0 0 0 0 0 0 0 0 0 0 0 0 3 3 2 1 0 0 0 0 0 0 2 0 0 0 0 0 0 12 0
0 0 0 0 0 0 0 0 0 0 0 0 1 0 2 2 1 0 0 0 0 0 3 9 1 2 0 0 7 2 0 0
0 0 0 0 0 0 0 0 0 0 0 1 1 0 0 0 1 0 1 23 2 4 8 27 25 16 9 8 17 7 1 9
0 0 1 1 0 0 0 0 0 0 0 1 1 1 1 1 2 3 8 2 8 10 16 12 18 13 0 13 10 5 22 28
0 0 1 2 0 0 0 0 0 0 0 1 1 2 2 1 1 1 1 0 2 11 11 8 0 4 8 3 1 10 27 13

GFSFLT2_con_mlcape_102.txt.gz
CAPE
916 1174 1509 1659 1636 1553 1551 1394 1238 952 999 1222 1267 1158 955 940 927 865 414 204 295 380 439 340 200 76 17 0 0 0 0 0
945 964 1209 1523 1619 1604 1557 1335 1115 895 557 636 615 525 501 518 820 193 399 617 544 286 298 189 97 26 0 0 0 0 0 0
979 936 921 978 1228 1519 1572 1305 1024 928 653 298 182 184 107 110 155 267 391 199 233 158 170 75 20 2 0 0 0 0 0 0
1005 1014 958 794 805 804 1237 1169 894 809 611 302 115 90 61 115 35 39 141 95 101 155 57 59 0 0 0 0 0 0 0 0
751 609 444 353 575 552 669 936 859 654 556 265 72 50 81 10 1 13 69 73 81 87 31 0 0 0 0 0 0 0 0 0
443 358 178 94 139 338 531 453 394 367 326 199 100 83 1 0 15 72 77 76 81 58 0 0 0 0 0 0 0 0 0 0
155 270 183 101 129 144 247 119 107 93 128 99 12 2 0 0 12 47 85 59 31 1 0 0 0 0 0 0 0 0 0 0
1 108 221 158 135 88 78 63 53 12 0 0 2 0 0 0 19 28 30 1 2 0 0 4 0 0 0 0 0 0 0 0
0 33 142 206 125 34 24 13 18 1 0 0 0 0 0 0 19 31 6 0 6 0 4 0 0 0 0 0 0 0 0 0
0 20 84 111 97 2 0 0 3 3 1 1 1 3 0 2 23 32 5 12 0 0 0 0 0 0 0 0 0 0 0 0
1 4 74 59 6 0 0 0 3 3 0 2 4 12 1 7 6 8 3 1 1 0 0 0 0 0 0 0 0 0 0 0
0 0 20 0 0 0 0 0 0 4 4 2 6 13 1 0 0 1 2 1 1 0 0 3 1 0 0 0 0 0 0 0
2 0 0 0 0 0 0 1 0 13 15 22 17 15 0 1 1 1 2 0 0 0 0 5 0 0 0 0 0 0 0 0
0 0 0 0 0 1 0 0 1 2 18 33 23 36 1 2 0 0 0 0 0 0 3 1 0 0 0 0 1 0 0 0
0 0 0 0 0 0 1 1 1 0 3 18 22 45 2 2 1 1 0 0 0 0 1 1 0 0 1 0 0 0 0 0
0 0 0 1 0 0 0 0 0 0 0 0 2 21 4 1 2 0 0 0 0 0 0 0 0 0 0 0 0 0 0 0
0 0 2 0 0 0 0 0 0 0 0 0 0 0 1 2 1 2 0 0 0 0 0 0 0 6 0 0 0 0 0 0
0 1 0 3 0 0 0 0 0 0 0 0 0 0 0 3 2 1 0 0 0 0 0 0 0 5 6 5 2 3 1 4
1 1 0 2 1 0 0 0 0 0 0 1 0 0 1 4 0 1 0 0 0 0 5 15 14 17 29 34 39 2 17 16
1 1 1 0 0 0 0 0 0 0 1 1 1 0 0 0 0 0 1 1 0 0 0 18 48 49 50 34 37 1 35 3

GFSFLT2_con_mlcape_105.txt.gz
CAPE
1253 1466 1471 1402 1349 1327 1476 1393 1163 1274 1599 1515 1597 1532 1210 1128 843 220 705 486 615 950 854 627 436 232 156 116 43 56 101 62
1001 1470 1571 1636 1676 1386 1449 1312 1321 1096 1185 1307 1306 1171 1057 942 478 787 883 763 387 481 728 482 251 122 98 83 44 8 59 38
1073 1169 1453 1594 1692 1742 1477 1339 1255 1065 977 1018 1003 1007 877 662 606 410 550 189 653 567 527 252 114 76 41 20 24 47 32 26
1142 1137 1183 1404 1538 1725 1552 1530 1294 1045 939 930 944 727 646 507 411 324 158 176 290 295 270 124 57 24 18 0 17 16 30 34
1059 984 1041 1029 1092 1325 1242 1410 1189 1025 990 592 411 278 262 331 312 173 369 417 185 117 119 80 25 20 1 0 1 1 14 18
901 899 1003 1009 960 917 766 905 929 899 769 747 476 148 112 108 125 142 87 334 218 78 141 18 1 28 0 0 0 0 4 10
631 890 953 746 507 575 590 437 527 443 688 472 516 255 80 189 123 32 147 231 188 54 4 1 1 1 0 0 0 0 0 7
498 617 724 463 217 159 252 233 279 295 351 299 372 400 307 89 69 26 76 129 132 6 0 0 0 0 0 0 0 0 0 2
107 259 509 410 242 94 220 245 311 81 29 20 72 126 156 56 6 24 39 19 17 2 1 0 0 0 0 0 0 0 0 1
6 10 143 303 229 103 169 110 67 35 3 3 4 8 7 3 3 2 7 1 1 1 1 0 0 1 0 0 0 0 0 1
0 1 20 88 220 72 53 21 10 3 7 0 4 3 3 12 4 2 2 2 0 1 2 0 0 1 0 0 0 0 0 0
0 0 26 24 64 5 5 1 2 2 1 1 4 1 3 8 6 1 1 2 1 0 0 0 5 3 0 0 0 0 0 13
0 0 14 2 0 8 1 25 6 2 2 1 0 2 4 3 1 0 3 1 1 2 2 0 2 13 0 2 4 2 5 0
0 0 0 8 19 8 1 1 1 2 1 0 0 3 6 4 0 0 1 2 2 0 1 1 1 0 0 0 2 1 8 4
0 0 1 22 18 1 2 0 1 1 0 4 3 22 15 10 1 3 2 1 2 1 1 0 0 0 9 9 4 4 4 8
0 1 1 12 2 2 1 0 0 0 0 1 12 45 22 4 2 3 2 1 1 1 1 0 0 1 3 2 5 0 4 0
0 0 3 1 3 2 0 0 1 2 1 0 1 20 18 2 1 2 2 2 0 0 0 0 1 7 19 0 0 9 0 0
0 0 3 2 3 2 0 0 0 1 1 0 1 0 8 7 0 2 1 0 0 2 1 1 0 9 11 0 8 11 0 0
2 1 2 4 2 0 0 0 0 0 1 1 1 0 1 2 2 3 1 0 0 0 0 1 3 8 4 3 12 10 9 0
3 1 2 3 2 2 0 1 0 0 0 1 3 2 1 4 2 2 2 1 0 0 0 0 4 13 20 25 18 5 3 47

GFSFLT2_con_mlcape_108.txt.gz
CAPE
1839 1764 1601 1298 1268 1233 1177 1232 1554 1870 1849 2003 1942 1633 1237 1076 1110 991 744 287 520 841 1157 758 721 562 376 239 140 309 340 276
1781 1815 1813 1851 1747 1317 1365 1317 1275 1693 1920 2044 1812 1503 1340 1036 986 871 287 524 800 776 533 481 510 374 228 165 161 261 315 209
1532 1698 1777 1934 1942 1759 1322 1360 1092 1276 1626 1742 1339 1398 1138 1093 880 829 261 475 544 472 491 535 242 176 114 119 153 303 268 207
1289 1536 1638 1776 1702 2027 1860 1813 1494 1666 1427 1391 1417 1146 1166 982 821 629 365 369 343 328 514 267 119 67 65 83 289 267 262 144
1234 1576 1659 1715 1617 1490 1969 1780 1860 1785 1742 1664 1547 1261 1044 892 831 520 410 395 281 534 307 195 95 67 52 84 203 247 170 81
1385 1492 1659 1621 1474 1439 1506 1474 1748 1626 1681 1499 1556 1341 1203 1000 732 658 436 367 472 476 203 207 121 55 55 128 139 196 23 39
1347 1360 1645 1569 1603 1291 1172 1385 1503 1438 1442 1519 1265 1014 819 816 621 537 472 521 612 231 297 124 76 39 49 155 142 84 31 53
1304 1243 1443 1577 1591 1275 1229 1139 1023 1421 1311 1150 1168 1235 835 847 691 433 262 607 612 349 202 119 85 28 23 119 94 77 50 38
929 1457 1530 1615 1387 1077 989 882 860 1124 869 689 959 848 944 772 698 393 615 322 297 254 75 83 33 3 51 72 70 63 49 27
362 744 1213 1534 1250 925 536 502 616 463 462 412 538 526 801 670 425 373 211 97 45 10 1 2 2 1 33 55 42 48 27 15
18 449 653 1161 1280 952 503 462 461 759 563 230 129 359 538 326 332 84 29 3 1 2 3 0 1 0 33 79 48 46 21 18
0 15 400 537 1165 851 447 386 401 534 568 377 371 279 144 204 166 42 1 0 2 2 2 2 3 0 34 78 55 33 21 11
0 0 175 342 700 497 214 126 244 306 366 307 296 146 180 32 5 17 2 2 3 1 1 1 2 1 44 88 57 29 11 7
0 1 171 381 352 226 265 180 154 171 172 370 110 74 38 4 3 4 1 3 3 3 1 1 0 0 30 34 19 10 25 12
0 0 88 349 296 62 259 223 164 67 57 49 14 36 10 2 3 3 2 2 2 1 1 1 3 19 21 8 7 14 22 20
0 0 41 209 267 88 319 230 105 82 3 4 6 9 5 3 6 4 2 1 1 2 2 1 3 9 14 30 38 9 1 11
0 0 41 18 192 102 303 397 351 222 112 21 3 2 6 10 3 2 2 2 1 1 5 4 2 1 2 2 41 14 15 0
38 20 8 3 16 89 341 530 386 67 2 5 1 2 5 6 2 3 2 2 2 3 3 3 0 0 3 0 47 55 21 11
2 33 0 4 3 31 283 504 178 46 11 1 2 2 5 6 2 3 3 2 3 4 4 1 0 0 3 24 41 60 26 17
0 36 2 2 2 3 59 106 172 20 0 0 0 5 9 2 2 3 2 2 3 4 3 3 3 1 0 14 12 46 48 16

GFSFLT2_con_mlcape_111.txt.gz
CAPE
2117 1695 1310 1056 966 1013 1141 1490 1790 2016 2106 2091 1832 1741 1546 1478 1391 1109 1167 1219 1238 851 1078 910 870 752 518 386 221 172 291 400
2006 2020 1776 1591 1386 1079 1074 1149 1451 1718 1984 1975 1634 1284 1355 1149 1035 982 978 1024 838 1053 818 467 517 160 299 306 202 180 470 315
1608 1849 1852 1909 1899 1629 1216 1252 1134 1425 1730 1649 1704 1267 1270 1193 983 893 636 133 499 589 220 614 362 163 182 178 175 333 222 226
1197 1517 1593 1688 1527 1972 1660 1718 1579 1377 1482 1795 1968 1424 1332 1207 1132 832 729 271 318 399 366 271 199 296 142 140 131 325 261 133
705 1415 1603 1604 1207 1517 1633 1689 1786 1701 1559 1566 1615 1566 1356 1218 1037 973 814 419 356 327 343 384 453 284 235 128 28 136 69 107
844 1062 1571 1817 1264 1212 1343 1966 1781 1746 1838 1970 1743 1445 1447 1252 1042 964 837 597 328 438 634 632 478 278 242 102 79 80 128 89
914 1208 1629 1878 1829 1317 1295 2020 1782 1776 1774 1707 1834 1595 1426 1244 1044 911 726 606 501 538 627 564 365 176 163 76 85 47 62 62
944 1439 1796 1852 1803 1624 1438 1564 1886 1745 1640 1621 1831 1627 1502 1239 1217 1042 1020 767 782 644 497 514 255 120 116 61 34 30 36 74
760 1510 2149 1900 1808 1697 1612 1342 1454 1719 1518 1655 1757 1765 1500 1325 1147 841 860 764 657 554 490 411 244 60 59 42 35 104 57 57
23 955 1708 1867 1966 1833 1662 1233 1280 1266 1353 1340 1507 1606 1453 1253 1032 943 685 643 505 549 377 202 117 35 44 22 53 61 52 63
0 327 1071 1700 2025 1919 1751 1181 1145 1105 1013 918 1152 989 953 890 882 887 679 461 353 273 61 73 29 21 7 5 48 54 49 22
0 2 540 1241 1571 1946 1604 1242 1033 966 872 810 895 929 773 817 660 531 531 156 32 13 3 2 1 2 2 8 36 45 28 4
0 0 0 664 921 1299 1565 1055 800 845 1029 913 759 571 511 410 337 372 139 2 2 0 2 2 2 9 15 20 31 49 42 16
0 0 0 20 578 866 1454 703 485 598 844 936 813 619 350 230 311 123 1 2 2 1 1 2 1 1 8 8 30 32 27 7
0 0 0 27 447 1001 804 636 364 360 446 767 743 520 343 303 302 36 2 1 1 2 2 0 1 1 0 3 2 24 19 22
0 0 0 29 476 796 505 495 322 408 560 613 654 514 371 207 82 5 2 2 3 2 3 0 0 0 0 6 0 3 24 30
0 0 0 22 263 720 543 388 556 705 656 560 351 410 153 157 29 4 2 2 1 1 1 1 1 1 0 0 3 8 50 54
0 5 74 54 271 508 633 349 803 746 834 699 262 263 195 28 17 6 4 2 2 2 2 2 1 2 7 3 3 23 30 63
0 0 32 122 223 226 570 371 850 927 908 776 351 150 58 12 4 4 2 4 2 2 2 2 2 6 13 8 20 26 31 56
0 0 0 88 107 18 251 269 659 902 637 375 107 28 35 3 1 2 2 2 3 2 3 3 3 7 6 2 5 12 33 55

GFSFLT2_con_mlcape_114.txt.gz
CAPE
986 949 873 729 652 833 1210 1430 1676 1671 1845 1833 1928 1591 1338 1203 1516 1307 1193 1268 1064 1034 804 815 888 886 755 579 373 177 142 399
1645 1364 1179 966 803 734 938 1146 1443 1667 1844 1778 1961 1664 1446 1191 1113 1032 1098 1063 983 1044 456 638 721 619 537 388 159 143 77 311
2234 1985 1596 1394 1273 951 844 943 1155 1410 1719 1798 1743 1767 1591 1379 1111 928 862 872 813 665 524 509 441 419 79 239 101 103 261 150
1931 1941 1930 1914 1695 1612 1128 1112 1058 1250 1526 1708 1414 1769 1534 1369 1197 864 786 590 307 376 421 255 375 89 47 144 17 186 137 143
1234 1745 2012 1952 1396 1808 1679 1776 1511 1405 1474 1671 1768 1723 1408 1228 1196 956 858 433 291 410 184 308 434 315 165 104 30 48 113 153
845 1580 1808 1812 1621 1728 1760 1639 1700 1598 1518 1363 1799 1753 1509 1317 1167 1061 933 760 476 444 339 384 530 345 225 194 71 84 59 95
822 1198 1830 2071 1745 1388 1462 1852 1719 1752 1625 1671 1606 1892 1633 1450 1294 1192 1005 922 627 453 495 500 366 314 267 305 72 31 37 11
964 1000 1664 1984 2043 1735 1285 2251 1869 1712 1739 1787 2136 1904 1621 1362 1259 1199 1060 1007 757 532 486 483 413 357 252 243 71 49 26 38
950 1321 1766 2102 2241 1832 2032 1691 2190 1597 1864 1768 1876 1896 1783 1488 1322 1202 1020 863 602 462 397 436 407 255 135 135 58 29 17 58
778 1501 1919 1937 2121 2159 1770 1777 1748 2053 1775 1456 1483 1882 1823 1449 1193 1109 1016 747 577 569 498 308 243 116 102 60 13 4 7 42
0 1347 2133 2102 2026 2276 2052 1783 1596 1485 1844 1696 1433 1530 1711 1360 1351 1225 988 670 503 398 324 241 144 77 62 28 5 1 4 43
2 529 1610 2304 2154 1917 2344 2017 1568 1441 1357 1402 1373 1095 1410 1312 962 1123 1015 735 407 339 197 209 95 53 45 26 17 3 28 21
0 0 854 1721 2064 2220 2064 2144 1588 1292 1232 1191 918 893 1007 888 805 891 627 419 138 87 9 17 12 25 11 24 8 21 17 33
0 0 0 429 1398 1438 1913 1961 1778 1275 1102 1121 1038 1040 1045 619 801 503 374 143 3 0 0 1 0 2 3 16 4 15 8 23
0 0 0 0 0 895 1111 1463 1093 864 746 621 1253 1054 785 611 485 313 147 5 0 0 1 0 0 1 1 4 1 2 11 15
0 0 0 0 6 140 953 1023 945 718 559 506 947 916 674 444 373 200 8 0 0 0 1 0 0 1 2 0 0 0 0 10
0 0 0 1 11 231 886 963 810 484 319 296 418 603 543 349 401 166 2 1 0 0 0 1 0 0 1 0 0 2 0 0
0 0 0 3 46 153 869 857 658 438 430 364 348 573 544 476 250 43 0 1 1 1 1 1 1 0 0 0 0 0 0 0
4 0 0 0 58 65 651 925 652 460 610 741 534 432 411 304 235 27 4 2 0 1 2 2 1 0 0 1 0 1 0 0
0 0 0 0 0 105 208 481 643 415 674 958 588 362 301 278 208 35 1 4 1 2 2 2 1 1 1 0 5 6 0 9

GFSFLT2_con_mlcape_117.txt.gz
CAPE
320 614 623 657 691 972 1176 1326 1429 1481 1556 1637 1666 1412 1276 1354 1472 1484 1211 1066 903 997 825 719 759 726 691 535 545 369 161 129
282 480 541 516 643 816 985 1150 1332 1267 1600 1633 1681 1508 1283 1257 1383 1350 1141 1018 892 886 564 603 655 680 670 533 410 218 133 159
456 485 427 451 475 698 859 1043 1260 1219 1622 1314 1618 1539 1333 1256 1199 1062 1096 957 845 780 344 525 692 571 439 413 204 101 113 173
1201 637 500 550 650 572 606 822 971 1218 1492 1297 1580 1554 1385 1269 1101 996 1004 876 810 611 296 436 491 235 139 64 157 167 146 125
1643 1297 947 833 1008 585 524 645 746 951 1159 1365 1345 1470 1412 1299 989 873 751 726 667 462 313 136 174 166 32 0 68 25 127 48
1600 1675 1573 1416 1448 1353 924 669 680 654 950 1295 1210 1136 1173 1175 1038 855 661 408 323 251 145 80 287 194 51 0 62 26 76 10
1273 1527 1667 1700 1334 1581 1294 1121 1072 1102 1068 1213 1601 1403 1181 1072 1024 887 808 522 345 286 126 65 157 274 166 119 85 38 21 19
1039 1315 1625 1615 1419 1426 1395 1394 1419 1415 1252 1224 1073 1573 1500 1270 1044 951 809 756 562 420 295 169 257 193 176 176 121 38 17 1
811 1208 1547 1514 1357 1468 1312 1543 1481 1449 1443 1466 1316 1329 1570 1346 1155 1013 910 835 672 461 370 281 248 175 203 148 113 33 5 16
772 1071 1568 1803 1607 1325 1515 1671 1656 1532 1715 1600 1698 1682 1580 1386 1185 1019 929 786 594 498 371 272 239 173 103 89 51 24 15 3
440 1074 1370 1694 1848 1656 1308 1463 1826 1759 1464 1539 1440 1729 1710 1447 1245 1066 949 721 469 347 221 169 160 133 81 32 30 19 22 3
18 977 1417 1681 1871 1850 1746 1400 1396 1614 1661 1552 1332 1314 1398 1443 1246 1105 912 678 475 393 337 132 116 66 62 13 9 2 1 6
0 1532 1669 1744 1865 1810 1827 1705 1545 1329 1204 1451 1428 1203 1218 1180 1299 958 988 723 456 366 278 116 33 19 9 6 12 19 14 4
0 1369 1984 1901 1881 1783 1620 1612 1684 1621 1184 1027 1188 1222 1045 990 1025 744 725 716 384 189 78 6 7 0 0 0 5 1 4 14
0 0 713 1573 1687 1741 1571 1403 1324 1442 1155 977 871 867 832 820 743 535 524 390 187 8 0 0 1 2 3 0 0 1 0 0
0 0 0 0 62 1193 1295 1262 1124 1364 1140 872 815 954 882 759 635 440 391 179 36 1 1 0 0 1 4 0 0 0 0 1
7 0 0 0 0 0 494 832 1000 957 883 790 640 633 902 907 639 407 273 110 1 0 0 3 1 1 3 0 0 0 0 0
0 0 0 0 0 0 139 567 650 688 615 544 478 393 605 652 547 327 148 56 0 1 0 0 4 0 1 0 0 0 0 0
0 0 0 0 0 0 0 96 437 518 465 292 198 108 197 542 476 270 86 23 0 2 3 2 1 0 0 0 0 0 0 0
0 0 0 0 0 0 0 0 168 525 416 318 215 220 317 405 456 243 80 5 0 1 3 2 2 0 1 0 0 0 0 0

GFSFLT2_con_mlcape_123.txt.gz
CAPE
503 641 870 914 937 925 1000 1063 1088 1102 1059 1011 1028 1106 1099 1043 1221 1459 1314 1369 1183 838 491 487 672 659 518 467 394 199 133 229
359 638 929 955 994 996 898 1057 1191 1183 1159 1070 1059 1077 1146 1152 1186 1424 1254 1177 1153 940 579 463 656 702 480 343 232 119 83 158
371 582 743 800 1048 1092 1023 1177 1283 1241 1225 1192 1114 1070 1173 1195 1218 1330 1243 1116 1035 907 735 520 620 704 556 328 193 119 0 96
311 382 499 674 892 1170 1253 1374 1362 1348 1285 1335 1183 1048 1040 1118 1143 1270 1191 988 913 715 599 374 529 385 350 306 92 72 0 0
261 330 307 538 753 1015 1016 1176 1234 1250 1201 1249 1253 1122 1020 1073 1058 1175 1151 1000 781 715 496 258 357 343 200 99 63 44 98 43
130 255 291 368 490 730 849 876 917 905 1124 935 918 1175 998 905 850 928 1035 864 684 577 361 185 187 227 62 38 49 17 45 30
11 160 154 268 314 311 446 575 630 565 923 874 733 1062 977 869 799 725 729 646 647 457 311 142 40 143 33 0 0 5 49 30
316 51 122 205 189 177 156 294 451 576 785 895 798 838 810 785 736 697 598 534 501 426 285 155 10 0 0 0 0 0 2 0
914 456 190 157 230 206 208 249 299 293 416 739 898 864 727 750 713 672 590 462 392 325 236 94 17 0 0 4 0 0 0 0
1290 1324 757 330 326 481 362 314 315 327 358 529 743 814 797 655 672 729 628 487 350 310 245 158 66 24 19 40 13 0 0 0
1140 1596 1326 968 693 643 637 636 639 593 490 437 511 726 908 914 848 707 675 624 479 408 288 256 210 108 56 13 17 8 0 0
1150 1418 1596 1555 1431 1061 959 998 1058 1054 971 811 811 732 900 1084 1117 928 752 641 533 432 492 257 342 235 113 49 8 0 0 1
1059 1138 1460 1620 1608 1359 1192 1155 1141 1165 1238 1319 1225 1017 960 1010 1098 1054 970 841 649 474 389 403 375 249 131 86 13 12 7 10
35 414 832 1360 1644 1530 1401 1357 1256 1261 1288 1448 1376 1290 1226 1118 1077 1099 1134 904 605 466 557 375 293 217 128 71 9 1 8 14
0 0 210 973 1606 1463 1184 1074 1030 1183 1292 1499 1480 1363 1385 1336 1221 1201 1154 922 700 447 491 412 269 135 86 13 19 5 8 4
5 139 571 1060 1360 1391 1457 1350 1196 1245 1303 1586 1392 1263 1371 1420 1336 1304 1269 1056 804 528 487 441 263 167 70 31 0 0 4 6
0 0 0 139 633 979 903 817 666 431 937 1072 1152 1279 1263 1252 1321 1214 1068 875 650 533 422 323 224 82 45 12 1 7 6 2
0 0 0 0 0 0 0 11 7 253 549 986 1066 895 983 1087 1108 1037 922 770 638 507 241 288 191 55 18 8 1 4 10 2
0 0 0 0 0 0 0 0 0 0 2 232 617 695 824 836 781 805 723 591 490 271 146 180 105 33 10 4 0 1 9 5
0 0 0 0 0 0 0 0 0 0 0 0 5 293 503 718 640 613 581 397 246 82 55 45 18 24 0 0 0 0 2 3

GFSFLT2_con_mlcape_126.txt.gz
CAPE
865 966 962 1026 1150 1227 1103 964 824 820 852 880 910 903 1020 1249 1263 1263 1364 1190 795 470 464 497 605 681 703 450 316 317 220 242
765 834 934 908 1102 1215 1126 1011 934 904 907 910 948 920 879 1028 1276 1290 1279 1146 762 419 368 469 531 527 472 473 330 179 127 179
719 681 766 931 1070 1153 1128 1105 1055 1052 1009 988 961 1012 989 975 1199 1306 1166 1148 868 515 253 369 514 486 349 236 202 59 55 131
475 487 654 925 1013 1109 1145 1274 1268 1236 1178 1117 996 942 1013 1013 1088 1283 1121 1040 933 702 415 327 454 391 345 204 112 59 31 90
254 452 673 788 858 1097 1047 1213 1262 1220 1225 1164 1044 916 1005 1062 1022 1175 1120 968 835 687 473 278 248 212 279 216 52 18 0 0
213 509 494 590 751 991 961 1090 1190 1123 1108 1169 1034 873 838 855 876 1010 1035 808 679 511 317 125 113 76 111 41 11 0 13 23
135 354 464 604 564 739 783 906 893 1099 1080 1019 1083 908 798 748 759 836 920 779 591 418 239 66 39 56 45 33 0 0 0 6
197 193 334 450 413 476 534 619 674 648 727 984 1046 985 836 765 678 673 720 761 586 434 272 96 28 16 9 0 0 0 0 0
39 216 348 360 366 281 362 407 461 358 407 789 830 780 833 770 637 601 572 567 536 400 221 84 20 0 7 0 0 0 0 0
132 273 245 233 278 219 141 165 343 372 529 694 724 690 733 635 555 562 534 472 401 389 261 144 67 10 1 0 0 0 0 0
1097 529 182 157 249 302 220 179 220 233 299 421 627 726 625 609 605 517 533 444 381 346 188 186 118 46 9 2 0 0 0 0
1285 1333 830 374 351 495 478 376 295 316 287 296 351 492 600 639 583 493 521 542 402 306 366 130 179 125 60 49 13 8 0 0
984 1435 1468 1118 749 566 473 292 369 389 364 342 309 367 487 579 614 621 606 607 575 466 422 252 178 137 193 106 37 23 32 0
865 1141 1506 1462 1327 1083 809 756 728 721 753 709 698 525 587 609 724 739 812 772 625 544 460 307 233 167 240 71 0 0 8 0
336 879 1263 1501 1564 1374 1063 992 1031 1037 969 1056 1038 999 999 866 873 840 791 915 854 592 578 498 361 182 178 42 0 0 0 1
0 74 713 1189 1489 1461 1476 1493 1381 1241 1164 1127 1105 1128 1218 1160 1027 982 809 836 859 597 513 486 342 291 144 54 0 0 0 0
0 0 53 513 1191 1362 1382 1407 1249 819 854 795 528 572 819 1037 1114 1156 996 934 860 733 545 469 333 316 254 93 10 0 0 0
0 0 0 0 69 191 581 757 863 833 606 275 12 0 462 867 1166 1244 1234 1119 953 691 622 500 383 307 227 100 96 42 0 0
0 0 0 0 0 0 0 0 0 6 161 93 6 10 415 801 920 1030 1031 923 745 539 448 470 425 171 81 95 58 19 0 0
0 0 0 0 0 0 0 0 0 0 0 0 8 60 185 474 689 703 800 705 518 338 284 295 249 157 44 40 50 14 0 0

GFSFLT2_con_mlcape_132.txt.gz
CAPE
2245 1812 1430 1083 1004 873 759 926 1243 1445 1528 1549 1454 1423 1264 1392 1456 1548 1369 1069 627 489 468 446 343 266 231 210 263 401 687 673
2312 2093 1900 1762 1511 960 780 803 975 1150 1321 1446 1426 1289 1246 1354 1485 1518 1205 716 462 459 453 414 287 246 236 166 130 175 588 627
2224 2229 2067 2029 1959 1534 922 820 914 1046 1259 1411 1386 1426 1555 1590 1586 1476 1043 536 407 417 434 456 367 209 145 155 94 313 427 506
2037 2140 2045 1969 1765 1876 1555 1311 1207 1275 1329 1563 1406 1502 1593 1601 1696 1423 1071 501 354 350 379 385 368 628 471 177 331 468 501 487
1699 1930 1962 1885 1523 1695 1609 1614 1431 1439 1457 1527 1411 1664 1702 1582 1725 1565 1389 711 523 362 458 551 584 750 679 504 516 666 498 520
1405 1500 1762 1789 1378 1478 1706 1655 1602 1560 1656 1814 1653 1762 1743 1587 1632 1466 1402 1086 871 502 460 513 896 874 843 817 790 577 502 476
1177 1227 1478 1635 1534 1253 1480 1545 1613 1562 1666 2073 1845 1736 1796 1662 1723 1575 1502 1297 1149 1000 882 873 913 801 738 850 758 711 651 398
797 1038 1286 1416 1386 1349 1462 1574 1480 1573 1609 1877 1886 1807 1798 1848 1794 1653 1575 1521 1371 1286 1147 1055 888 785 740 741 692 618 619 527
113 926 1084 1198 1228 1431 1389 1327 1396 1435 1536 1642 1772 1905 1796 1742 1683 1686 1568 1643 1405 1303 1160 1059 916 845 801 798 714 683 608 621
8 512 884 990 1060 1265 1330 1226 1366 1375 1523 1629 1490 1571 1779 1670 1542 1505 1533 1699 1608 1403 1269 1107 925 843 799 777 717 695 645 672
0 423 812 887 934 1124 1371 1209 1254 1341 1398 1404 1544 1463 1535 1561 1402 1333 1662 1636 1451 1397 1280 1133 963 897 814 872 838 733 510 541
0 105 897 949 907 1092 1207 1232 1300 1248 1319 1410 1442 1310 1354 1242 1322 1119 1420 1414 1421 1388 1296 1262 1151 1065 772 773 810 612 439 354
0 0 924 1192 1051 919 838 942 953 987 1053 901 1064 1071 1184 1046 1242 1069 1463 1275 1205 1239 1168 1063 1130 1068 977 581 523 643 431 352
0 0 756 1155 1221 1178 1032 1076 838 656 640 689 799 763 793 805 1141 1261 1192 1189 1311 1022 1210 903 825 901 693 651 377 289 248 456
0 0 223 1111 1178 1254 1105 1194 898 694 703 849 1124 1138 993 608 1016 1172 1201 1240 1183 921 1010 875 620 574 1089 549 531 369 455 317
0 0 5 1070 1248 1179 918 959 809 752 923 890 950 1101 1082 1236 1299 1164 1134 917 830 700 775 1019 993 715 635 937 788 634 406 268
0 0 0 931 1513 1280 1172 963 978 938 975 1040 1157 1094 1118 1165 1239 1250 830 790 623 585 408 749 1183 1035 677 640 867 453 189 207
0 0 0 707 1554 1608 1504 1300 1486 1712 1797 1746 1402 1182 1084 1221 905 574 363 68 0 0 197 639 755 1014 923 691 789 555 352 269
0 1 2 2 199 696 1689 2027 2107 2037 1867 1464 1310 1037 683 494 418 166 8 34 26 0 2 70 699 616 875 971 957 684 420 412
0 0 0 0 1 0 1 0 55 152 375 856 1110 1065 1113 947 577 317 138 51 35 1 0 68 457 739 791 1055 1133 1010 660 584

GFSFLT2_con_mlcape_135.txt.gz
CAPE
2497 1739 1299 841 931 1099 1225 1378 1409 1399 1487 1609 1606 1504 1374 1339 1423 1448 1496 1397 999 513 504 519 448 336 254 222 143 226 642 370
2540 2064 1725 1381 1197 997 1137 1319 1360 1407 1627 1617 1555 1431 1376 1393 1500 1541 1534 1283 661 493 451 376 309 193 148 124 55 229 652 279
2594 2437 2146 1868 1753 1310 942 1230 1434 1548 1664 1615 1552 1552 1602 1635 1522 1627 1525 1027 546 487 433 298 185 157 142 105 33 171 448 312
2428 2514 2450 2246 1986 1839 1253 1285 1467 1678 1731 1845 1557 1367 1408 1506 1440 1661 1348 807 522 455 453 353 213 444 336 136 213 462 318 390
2277 2398 2508 2350 1994 1932 1575 1504 1329 1460 1549 1714 1427 1435 1622 1659 1763 1755 1445 778 691 516 531 618 551 856 705 498 428 658 508 341
2150 2355 2400 2496 1900 1715 1564 1469 1581 1616 1592 2028 1578 1514 1562 1703 1720 1640 1480 960 680 621 652 559 759 932 1031 843 665 642 537 500
620 2207 2416 2308 2296 1668 1506 1506 1492 1550 1789 2123 1949 1807 1666 1659 1851 1670 1444 1358 1059 906 707 718 732 801 785 756 767 663 746 587
0 1530 2177 2053 2128 2084 1707 1638 1585 1747 1868 2223 2244 2149 1990 1800 1867 1852 1718 1635 1231 1247 797 940 671 767 759 752 696 643 620 549
0 834 2000 2001 2072 2041 1746 1669 1648 1684 1698 2165 2449 2266 2032 1923 1875 1861 1859 1813 1485 1284 1303 1154 854 637 751 614 644 515 578 492
0 0 1112 2013 1983 1997 1740 1606 1671 1774 1681 1921 2330 2512 2253 2048 1877 1821 1871 1717 1488 1443 1090 1028 916 627 505 703 647 439 576 680
0 0 114 1546 1935 1868 1827 1762 1877 1736 1667 1719 2007 2018 2439 2252 1981 1942 1861 1846 1738 1519 1178 1052 1039 801 632 583 607 437 563 635
0 0 0 1238 1800 1714 1704 1922 1882 1638 1799 1656 2043 1708 1969 2365 1873 1968 1920 1997 1813 1799 1363 1338 1007 867 723 612 774 814 590 310
0 0 0 1 1587 1572 1612 1873 1892 1695 1708 1755 1805 1780 1640 1965 1966 1851 1562 1927 1778 1412 1469 1324 1158 1171 914 675 835 962 878 640
0 0 0 0 1374 1596 1578 1775 1893 1900 1864 1769 1731 1988 1538 1621 1576 1697 1229 1589 1627 1816 1241 1102 1183 1102 970 871 618 676 631 647
0 0 0 0 3 1624 1429 1512 1738 1594 1375 1475 1652 1770 1513 1414 1412 1700 1531 1530 1475 1903 1166 1063 907 1038 1164 719 602 399 341 872
0 0 0 0 0 1336 1366 1400 1439 1297 1136 1373 1303 1340 1266 1208 1249 1650 1738 1660 1252 1585 984 1049 885 817 785 999 985 930 557 448
10 0 0 0 0 347 1453 1352 1566 1310 1143 1209 1174 1605 1633 1332 1106 1552 1756 1816 1149 814 728 824 749 592 563 639 958 1000 951 579
0 28 0 0 0 187 1494 1386 1605 1300 1277 1423 1293 1641 1702 1779 1661 1633 1751 1265 882 661 503 181 264 376 563 716 565 648 755 577
0 0 0 0 3 44 1335 1432 1390 1429 1344 1406 1613 1583 1641 1681 1725 1806 1553 1149 857 60 4 0 0 3 546 580 761 622 481 450
1 1 2 2 2 1 43 149 1028 1464 1622 1865 1899 1693 1453 1649 1716 1303 1150 986 238 93 15 0 0 31 255 70 680 791 355 484

GFSFLT2_con_mlcape_138.txt.gz
CAPE
2401 1594 1008 1118 1290 1395 1493 1582 1633 1555 1415 1375 1405 1416 1299 1405 1415 1546 1653 1581 1246 638 510 526 450 327 188 69 0 3 181 612
2596 1951 1393 1138 1327 1371 1472 1560 1591 1546 1427 1412 1446 1436 1385 1364 1389 1486 1492 1338 944 495 440 401 273 140 81 31 0 27 241 511
2718 2205 1896 1506 1436 1353 1418 1513 1540 1511 1514 1533 1515 1578 1448 1421 1373 1414 1439 1187 655 440 339 266 132 65 41 13 0 19 373 465
2796 2549 2237 1908 1635 1593 1384 1650 1639 1677 1812 1747 1792 1692 1661 1607 1458 1609 1323 1015 481 388 300 148 61 107 56 28 0 171 258 327
2206 2950 2513 2322 2099 1983 1378 1628 1826 1969 2109 2083 1916 1679 1760 1391 1496 1612 1358 830 470 383 308 225 118 522 370 54 49 286 397 220
0 2620 2924 2677 2491 2343 1828 1552 1536 1771 2022 2182 1732 1571 1849 1425 1861 1724 1536 861 673 458 520 479 576 541 779 603 548 566 396 275
0 273 2697 3017 2668 2519 2236 1762 1731 1689 1792 2044 1879 1739 1679 1772 1918 1902 1542 1167 808 621 676 494 612 823 882 494 703 470 608 295
0 0 1771 2703 2750 2361 2249 1951 1964 1814 1877 2000 2081 1933 1674 1688 1848 1800 1653 1425 917 979 675 768 705 780 459 607 438 485 373 525
0 0 0 2591 2555 2370 2217 1728 2095 1843 1970 2230 2138 2005 1890 1853 1715 1934 1871 1485 1306 1087 701 952 686 715 489 504 194 628 556 517
0 0 0 395 2320 2322 2131 2150 1685 1987 1795 2330 2357 1979 1953 2024 1772 1927 2070 1943 1518 1377 1138 834 837 480 870 571 327 160 235 361
0 0 0 0 659 2205 2217 2051 2068 1464 2000 2187 2590 2284 1967 2091 2019 2046 2018 1986 1897 1533 1238 1458 742 707 914 855 598 382 278 150
0 0 0 0 0 1546 1811 1837 1900 1797 1954 1709 2522 2552 2099 1947 2097 1849 1733 1788 1850 1433 1546 1552 957 587 530 444 575 701 443 551
0 0 0 0 0 35 1177 1263 1580 1473 1704 1983 2360 2359 2205 2037 2120 1959 1728 1774 1932 1813 1333 1440 1017 1223 677 573 425 463 591 519
0 0 0 0 0 0 870 1134 1486 1520 1714 1813 1743 2169 1852 1915 2437 1946 1833 1660 2051 1792 1508 1448 1469 1188 1051 607 480 508 581 614
0 0 0 0 0 0 0 995 996 1127 1258 1858 1680 2164 1937 1617 1935 2199 2010 1535 1727 1972 1322 1022 942 1189 960 613 311 194 582 642
0 0 0 0 0 0 0 0 802 998 1039 1684 1975 1991 1990 1666 1697 1712 1808 1431 1155 1827 1842 1233 865 758 770 817 722 762 289 392
0 0 0 0 0 0 0 0 19 761 1171 1267 1838 1941 2144 1733 1538 1563 1678 1572 1159 1805 1756 1320 942 800 723 578 501 549 384 330
1 0 0 0 0 0 0 0 0 286 833 1148 1269 1871 1848 1699 1479 1324 1292 1842 1786 1514 1464 1170 871 779 702 546 432 220 176 349
1 3 1 1 1 1 0 0 0 0 594 971 1004 1540 1476 1454 1243 951 1160 1677 1560 1198 1031 782 727 726 588 444 373 174 295 397
1 2 0 1 2 2 0 0 0 0 165 883 904 1061 1455 1571 1253 1107 1237 1570 1266 1046 735 609 519 393 77 57 72 52 167 154